Temp
-11 -11 -12 -12 -13 -14 -15 -15 -16 -16 -16 -17 -16 -16 -16 -16 -16 -17 -16 -16 -16 -16 -16 -16 -16 -16 -15 -15 -15 -15 -15 -14 -14 -15 -15 -14 -14 -14 -14 -14 -14 -14 -15
-12 -12 -12 -13 -14 -14 -15 -15 -16 -16 -17 -17 -17 -17 -16 -16 -16 -17 -17 -17 -16 -16 -16 -16 -16 -16 -16 -16 -16 -16 -16 -15 -15 -15 -15 -14 -14 -15 -14 -14 -15 -15 -15
-13 -13 -13 -13 -14 -15 -15 -16 -17 -17 -17 -17 -17 -17 -17 -17 -17 -17 -17 -17 -17 -16 -17 -17 -17 -16 -16 -16 -16 -16 -16 -16 -16 -16 -16 -15 -15 -15 -15 -15 -15 -15 -15
-13 -13 -14 -15 -15 -15 -16 -16 -17 -17 -17 -17 -18 -17 -18 -18 -17 -17 -17 -17 -17 -17 -17 -16 -16 -16 -16 -16 -16 -16 -16 -16 -16 -16 -16 -16 -16 -15 -15 -16 -15 -15 -15
-13 -14 -15 -15 -16 -16 -17 -17 -17 -17 -17 -17 -18 -18 -18 -18 -18 -18 -17 -17 -17 -17 -17 -17 -16 -16 -16 -16 -16 -17 -17 -16 -16 -17 -17 -16 -16 -16 -16 -16 -16 -16 -15
-14 -14 -15 -15 -16 -17 -17 -17 -17 -17 -17 -17 -18 -18 -18 -18 -18 -18 -18 -18 -17 -17 -17 -17 -17 -17 -17 -16 -16 -16 -17 -17 -17 -17 -17 -17 -17 -17 -17 -17 -17 -16 -16
-14 -15 -15 -16 -17 -17 -17 -17 -17 -18 -18 -18 -18 -18 -18 -18 -18 -18 -18 -18 -18 -17 -17 -17 -17 -18 -17 -17 -17 -17 -17 -17 -17 -17 -17 -18 -18 -18 -18 -17 -17 -17 -17
-15 -16 -16 -16 -17 -17 -18 -17 -18 -18 -18 -18 -19 -19 -19 -19 -19 -19 -19 -19 -18 -18 -18 -18 -18 -19 -18 -18 -18 -18 -18 -18 -18 -18 -18 -17 -18 -18 -19 -18 -18 -18 -18
-16 -16 -17 -17 -17 -18 -18 -18 -18 -18 -18 -19 -19 -19 -19 -19 -19 -19 -19 -19 -19 -19 -19 -19 -19 -19 -19 -19 -19 -19 -19 -19 -19 -19 -19 -19 -18 -19 -19 -20 -19 -19 -19
-17 -17 -17 -17 -18 -18 -18 -18 -18 -19 -19 -19 -19 -19 -19 -19 -19 -19 -19 -19 -19 -19 -19 -19 -19 -19 -20 -20 -20 -20 -20 -20 -20 -19 -19 -19 -19 -19 -20 -21 -20 -20 -20
-17 -17 -17 -18 -18 -18 -19 -19 -19 -19 -20 -20 -20 -20 -20 -20 -20 -20 -20 -20 -20 -20 -20 -20 -20 -20 -21 -21 -21 -21 -21 -21 -21 -21 -20 -21 -21 -20 -21 -22 -21 -21 -21
-17 -18 -18 -19 -19 -19 -19 -19 -20 -20 -20 -21 -21 -21 -21 -21 -21 -21 -21 -21 -21 -21 -21 -21 -21 -21 -22 -22 -22 -22 -22 -22 -22 -22 -22 -23 -23 -23 -23 -23 -23 -22 -22
-18 -19 -19 -19 -19 -20 -20 -20 -20 -21 -21 -21 -21 -22 -21 -22 -22 -22 -22 -22 -22 -22 -22 -22 -22 -23 -23 -23 -23 -24 -24 -24 -24 -25 -24 -24 -25 -24 -25 -24 -23 -23 -22
-19 -19 -19 -19 -20 -20 -20 -20 -21 -21 -22 -22 -22 -22 -23 -23 -23 -22 -22 -22 -22 -23 -23 -24 -24 -24 -24 -24 -25 -26 -26 -26 -27 -26 -26 -26 -26 -25 -25 -24 -24 -24 -23
-19 -20 -20 -20 -20 -20 -20 -21 -22 -22 -23 -23 -23 -23 -23 -23 -23 -23 -23 -23 -24 -24 -25 -25 -25 -25 -25 -26 -27 -27 -28 -28 -28 -28 -28 -28 -27 -27 -26 -25 -25 -25 -24
-20 -20 -20 -20 -20 -21 -21 -22 -22 -23 -23 -23 -23 -23 -24 -24 -24 -23 -24 -24 -25 -25 -26 -26 -27 -26 -27 -27 -28 -28 -29 -29 -29 -29 -29 -29 -28 -27 -26 -26 -26 -25 -25
-20 -20 -21 -21 -21 -22 -22 -23 -22 -23 -24 -24 -24 -24 -24 -25 -25 -24 -25 -26 -27 -27 -27 -28 -27 -28 -28 -28 -28 -29 -29 -30 -30 -30 -29 -29 -28 -27 -27 -26 -26 -26 -25
-21 -21 -21 -22 -23 -22 -22 -23 -24 -24 -24 -24 -25 -25 -25 -25 -25 -25 -27 -27 -28 -28 -28 -28 -28 -28 -28 -28 -29 -29 -29 -29 -30 -30 -30 -29 -29 -28 -27 -27 -27 -26 -26
-21 -21 -22 -24 -24 -23 -23 -23 -24 -24 -25 -25 -26 -26 -26 -26 -26 -27 -28 -28 -28 -28 -28 -28 -29 -28 -29 -29 -29 -29 -29 -29 -30 -30 -30 -30 -29 -29 -28 -28 -27 -27 -27
-23 -23 -24 -25 -25 -24 -24 -24 -25 -25 -26 -26 -26 -26 -27 -27 -28 -28 -28 -28 -28 -28 -28 -29 -29 -29 -29 -29 -29 -29 -29 -29 -30 -30 -30 -30 -29 -29 -29 -28 -28 -27 -27
-24 -25 -25 -25 -25 -25 -25 -25 -26 -26 -26 -26 -27 -28 -28 -28 -29 -29 -29 -28 -28 -28 -29 -29 -29 -29 -29 -29 -29 -29 -29 -29 -30 -30 -30 -30 -29 -29 -29 -29 -28 -28 -28
-25 -25 -26 -26 -26 -26 -26 -26 -27 -27 -27 -28 -28 -29 -29 -29 -29 -29 -29 -29 -28 -29 -29 -29 -29 -29 -29 -29 -29 -29 -29 -29 -29 -30 -30 -30 -30 -29 -29 -29 -29 -28 -28
-26 -26 -26 -26 -27 -27 -28 -28 -28 -29 -29 -29 -29 -29 -29 -29 -29 -29 -29 -29 -29 -29 -29 -29 -29 -29 -29 -29 -29 -29 -30 -30 -30 -30 -30 -30 -30 -29 -29 -29 -29 -29 -29
-27 -27 -28 -28 -28 -29 -29 -30 -30 -30 -30 -30 -30 -30 -30 -30 -30 -30 -29 -29 -29 -29 -29 -29 -29 -29 -30 -30 -30 -30 -30 -30 -31 -31 -31 -31 -31 -31 -31 -31 -30 -30 -30
-28 -28 -29 -30 -30 -30 -30 -30 -30 -30 -30 -30 -30 -30 -30 -30 -30 -30 -30 -30 -30 -30 -30 -30 -30 -30 -30 -30 -30 -31 -31 -31 -31 -32 -31 -32 -31 -31 -31 -31 -31 -31 -31
-30 -30 -30 -30 -30 -30 -30 -30 -30 -30 -31 -31 -31 -31 -31 -31 -31 -31 -31 -31 -31 -31 -31 -30 -30 -30 -30 -31 -31 -31 -32 -32 -32 -32 -32 -32 -32 -32 -32 -32 -31 -31 -31
Height
5752 5747 5741 5737 5732 5729 5725 5721 5718 5716 5714 5713 5711 5709 5706 5703 5701 5699 5697 5695 5693 5691 5690 5688 5688 5687 5687 5688 5688 5688 5689 5689 5690 5688 5692 5695 5696 5697 5699 5701 5703 5705 5706
5746 5741 5735 5730 5727 5722 5718 5714 5711 5708 5706 5704 5703 5702 5699 5696 5694 5691 5689 5687 5685 5683 5682 5680 5679 5678 5678 5678 5677 5677 5677 5676 5678 5678 5679 5682 5683 5684 5686 5686 5688 5689 5693
5738 5734 5728 5724 5719 5715 5710 5707 5704 5701 5698 5695 5694 5692 5690 5688 5686 5683 5680 5677 5676 5674 5672 5671 5670 5669 5668 5668 5667 5666 5666 5665 5664 5665 5665 5667 5669 5671 5672 5671 5669 5672 5677
5730 5725 5720 5715 5711 5707 5702 5699 5695 5692 5689 5686 5685 5683 5680 5679 5676 5673 5671 5668 5666 5664 5662 5660 5659 5659 5658 5657 5656 5655 5654 5652 5651 5650 5651 5651 5652 5654 5658 5655 5655 5658 5661
5722 5716 5712 5707 5703 5698 5693 5690 5687 5684 5682 5679 5676 5673 5670 5667 5665 5663 5661 5658 5655 5654 5651 5649 5648 5646 5645 5645 5644 5643 5642 5640 5638 5637 5635 5635 5636 5637 5639 5641 5641 5644 5645
5713 5707 5702 5697 5693 5689 5686 5682 5680 5677 5673 5671 5667 5663 5660 5657 5654 5651 5649 5648 5646 5643 5641 5639 5636 5634 5632 5630 5629 5628 5626 5625 5623 5622 5621 5620 5619 5620 5621 5623 5626 5625 5630
5704 5699 5694 5688 5684 5681 5677 5674 5670 5667 5663 5661 5656 5652 5649 5646 5643 5640 5638 5635 5632 5630 5627 5625 5623 5622 5618 5616 5614 5612 5610 5608 5607 5606 5604 5603 5603 5602 5602 5604 5606 5609 5611
5694 5689 5684 5679 5675 5671 5667 5663 5660 5656 5652 5648 5645 5640 5637 5634 5631 5627 5624 5622 5618 5615 5611 5609 5606 5602 5600 5598 5596 5595 5593 5591 5589 5588 5586 5585 5585 5584 5584 5585 5587 5589 5591
5684 5679 5674 5669 5664 5660 5655 5652 5648 5644 5640 5636 5632 5628 5623 5620 5616 5612 5609 5606 5602 5599 5595 5591 5588 5585 5582 5578 5576 5575 5573 5571 5570 5568 5567 5566 5565 5565 5565 5567 5568 5569 5571
5673 5669 5664 5658 5653 5649 5644 5641 5637 5633 5629 5624 5619 5615 5611 5606 5602 5598 5594 5590 5586 5582 5578 5573 5569 5565 5562 5558 5555 5553 5551 5549 5548 5547 5547 5547 5545 5545 5545 5546 5549 5550 5553
5663 5658 5652 5647 5642 5638 5634 5630 5625 5621 5616 5611 5606 5602 5597 5592 5588 5583 5578 5573 5569 5564 5559 5554 5549 5545 5541 5537 5534 5531 5529 5527 5526 5526 5526 5525 5524 5524 5524 5526 5529 5532 5535
5652 5646 5641 5636 5631 5627 5622 5618 5613 5608 5604 5598 5592 5587 5582 5577 5572 5566 5561 5556 5550 5545 5538 5533 5528 5523 5519 5516 5513 5509 5507 5505 5503 5503 5503 5503 5503 5504 5505 5507 5511 5513 5517
5640 5635 5629 5625 5619 5615 5611 5606 5600 5594 5588 5583 5577 5572 5565 5559 5554 5548 5543 5536 5530 5524 5518 5512 5507 5503 5498 5494 5491 5488 5484 5482 5481 5480 5481 5482 5483 5485 5488 5490 5493 5496 5499
5628 5623 5618 5613 5607 5603 5597 5591 5585 5579 5573 5566 5560 5553 5548 5542 5536 5529 5522 5515 5509 5503 5497 5492 5487 5483 5478 5474 5470 5467 5465 5462 5461 5460 5460 5462 5465 5468 5471 5474 5477 5479 5482
5615 5611 5606 5600 5594 5587 5581 5575 5570 5563 5556 5549 5543 5537 5531 5524 5517 5510 5503 5496 5490 5484 5478 5472 5468 5463 5459 5455 5452 5449 5447 5444 5442 5441 5442 5445 5448 5452 5455 5458 5461 5464 5467
5601 5596 5590 5584 5578 5571 5565 5559 5553 5546 5538 5532 5526 5520 5513 5505 5498 5491 5484 5478 5472 5466 5460 5455 5450 5446 5442 5438 5434 5433 5431 5428 5425 5424 5425 5429 5434 5437 5440 5443 5446 5450 5453
5586 5579 5574 5568 5561 5555 5547 5541 5535 5528 5521 5515 5507 5500 5494 5488 5480 5473 5466 5459 5453 5448 5443 5440 5435 5431 5427 5423 5419 5417 5415 5414 5412 5411 5412 5415 5419 5422 5425 5428 5432 5436 5439
5569 5563 5557 5550 5544 5538 5531 5523 5514 5509 5502 5495 5489 5481 5475 5470 5462 5455 5448 5442 5437 5433 5429 5425 5420 5417 5413 5410 5406 5405 5403 5401 5400 5399 5400 5402 5405 5409 5412 5415 5418 5422 5424
5551 5544 5537 5532 5527 5521 5514 5505 5497 5489 5482 5475 5469 5462 5456 5450 5443 5437 5431 5426 5422 5418 5415 5411 5407 5403 5400 5398 5395 5393 5391 5389 5389 5389 5389 5390 5392 5396 5400 5402 5405 5408 5410
5532 5525 5519 5514 5508 5501 5494 5485 5478 5470 5463 5456 5451 5445 5438 5432 5425 5419 5415 5411 5407 5404 5401 5397 5394 5390 5387 5385 5383 5381 5379 5378 5377 5378 5379 5380 5381 5383 5387 5389 5392 5394 5397
5514 5506 5500 5494 5487 5481 5474 5467 5459 5451 5443 5440 5433 5427 5420 5414 5409 5404 5400 5397 5393 5390 5387 5384 5381 5377 5375 5373 5371 5370 5368 5367 5366 5366 5367 5368 5370 5371 5374 5376 5379 5380 5382
5494 5486 5481 5475 5468 5461 5455 5447 5440 5433 5427 5420 5414 5408 5403 5397 5392 5388 5384 5382 5379 5376 5373 5371 5368 5365 5362 5361 5360 5358 5357 5356 5355 5355 5356 5357 5358 5359 5362 5364 5366 5367 5369
5476 5468 5462 5454 5447 5441 5434 5428 5421 5413 5407 5401 5395 5390 5385 5380 5376 5372 5369 5366 5363 5361 5359 5357 5355 5352 5350 5349 5348 5347 5345 5345 5344 5344 5345 5346 5347 5348 5350 5352 5353 5355 5356
5456 5449 5441 5434 5427 5420 5412 5406 5399 5393 5387 5381 5376 5371 5366 5362 5358 5355 5352 5350 5347 5345 5344 5343 5341 5340 5338 5337 5336 5335 5335 5334 5335 5335 5335 5335 5337 5338 5340 5341 5342 5343 5344
5436 5428 5420 5412 5404 5398 5390 5384 5378 5373 5367 5361 5355 5351 5347 5343 5340 5337 5335 5333 5331 5330 5329 5328 5327 5326 5325 5325 5324 5324 5324 5324 5325 5326 5326 5327 5328 5328 5329 5330 5331 5331 5332
5414 5407 5398 5391 5383 5376 5369 5361 5356 5351 5346 5340 5334 5331 5328 5324 5322 5319 5318 5316 5315 5314 5313 5313 5313 5312 5311 5311 5312 5312 5312 5313 5315 5315 5316 5317 5318 5318 5319 5319 5319 5319 5319
Wind_Speed
30 32 34 36 37 37 36 37 34 32 31 28 29 31 32 30 28 28 27 26 25 25 25 26 28 32 35 39 43 45 48 52 50 50 52 56 60 63 64 65 64 61 61
32 33 37 38 38 38 38 37 36 36 34 33 31 30 32 32 34 33 33 33 33 30 29 28 28 30 33 37 41 45 49 53 55 56 56 54 57 61 62 65 66 67 64
32 37 41 40 39 39 38 38 37 36 36 35 33 32 32 34 36 36 36 36 33 33 32 31 31 32 34 36 38 40 43 48 53 57 60 62 60 58 60 64 67 65 66
36 39 41 39 40 39 39 40 38 36 38 38 34 37 37 36 36 37 38 38 40 34 30 28 27 27 29 30 32 37 40 45 48 52 59 62 65 65 63 63 65 67 68
39 41 42 41 40 39 38 38 37 37 39 40 41 40 41 42 39 38 39 39 39 40 38 37 37 37 37 40 42 42 42 41 43 50 55 59 65 67 68 66 68 67 68
41 43 44 43 40 39 38 38 37 38 39 40 41 41 41 41 41 39 39 39 42 43 44 42 41 43 43 44 46 51 50 51 49 51 52 57 62 67 69 69 67 69 70
41 43 44 45 45 42 38 38 38 38 39 41 41 40 41 39 40 41 43 42 43 45 49 50 49 50 50 50 51 54 56 57 56 54 55 55 59 64 69 71 70 69 70
42 45 46 48 47 45 41 39 41 42 44 45 44 42 44 45 47 48 50 50 53 54 55 58 58 55 55 57 58 58 57 57 59 58 57 58 59 66 66 69 71 69 69
44 46 47 48 47 46 46 43 44 47 50 49 47 47 44 45 45 47 50 52 52 55 58 63 61 56 56 59 61 62 60 60 58 58 60 60 60 66 70 68 69 70 67
46 47 47 47 47 47 48 48 46 49 48 45 44 45 47 47 48 50 52 55 56 59 60 60 60 62 59 59 59 57 57 56 59 61 65 67 64 68 70 69 67 68 67
50 50 49 46 44 44 45 44 45 44 43 46 48 49 50 51 53 52 53 54 56 59 62 65 64 63 62 61 59 57 58 58 60 63 66 68 68 70 68 66 67 65 64
52 50 48 45 41 40 42 45 44 44 47 51 51 52 53 54 55 56 58 59 61 62 63 64 65 64 61 61 61 61 62 64 64 65 66 66 66 64 63 63 65 64 62
51 47 45 45 42 41 44 47 49 51 54 54 53 56 58 58 61 65 65 63 63 63 64 64 64 61 60 60 63 63 62 64 64 63 62 62 60 60 57 57 60 60 59
46 45 43 42 44 48 51 51 53 56 59 56 57 61 62 65 68 69 67 65 64 63 64 62 62 60 61 60 59 58 59 59 59 59 59 56 56 56 54 53 55 55 56
42 45 50 53 52 52 54 52 56 61 61 61 62 64 69 72 72 69 65 62 62 62 62 60 58 56 55 53 52 52 52 53 53 53 51 51 49 50 51 51 51 51 51
52 52 52 55 55 57 59 56 58 64 61 62 66 70 73 68 66 64 65 64 63 60 58 54 53 53 50 49 51 51 50 51 49 45 43 48 48 47 49 50 50 50 49
57 54 55 55 55 59 62 59 60 65 64 67 68 72 72 69 68 66 67 63 57 54 50 49 48 46 47 46 44 43 41 41 42 41 42 47 48 46 46 47 49 49 49
58 59 60 57 56 64 67 60 61 63 67 69 72 71 73 76 70 67 62 57 52 48 45 46 43 43 43 41 38 35 40 39 38 38 42 44 47 46 44 43 45 48 50
66 65 62 57 58 65 71 71 69 74 74 72 74 74 74 68 65 60 55 52 47 44 44 43 41 42 41 38 36 37 39 37 37 38 38 40 41 49 44 42 45 44 44
62 65 67 61 64 68 74 74 76 75 75 75 78 74 66 64 57 53 51 47 46 43 43 41 40 41 40 38 36 35 35 36 37 37 39 40 39 41 45 45 46 48 50
64 66 68 66 71 72 74 78 81 78 75 79 70 65 60 56 53 50 48 47 45 43 42 41 41 40 39 37 36 35 35 34 35 35 36 37 40 42 43 45 46 47 47
66 65 68 71 74 74 78 80 79 77 73 68 62 58 56 54 51 50 48 46 46 44 42 40 39 38 37 36 35 35 35 34 34 33 33 34 36 38 39 40 42 43 44
73 72 75 77 76 77 77 74 72 67 65 63 63 60 59 56 52 50 49 47 46 44 44 41 39 37 36 36 36 34 32 32 33 34 34 34 35 35 35 36 38 40 42
74 75 77 78 79 78 73 67 66 66 66 66 66 64 60 57 54 52 50 48 46 44 43 41 39 37 35 35 35 34 31 29 29 28 30 30 30 31 32 34 36 38 40
78 80 78 72 70 71 70 68 68 67 66 65 64 62 59 57 55 52 50 48 46 44 42 41 38 38 36 36 35 33 32 31 30 30 31 30 31 32 33 34 34 36 38
73 70 71 72 71 71 70 70 68 66 64 62 61 60 57 56 54 52 49 47 46 44 42 42 39 39 38 38 36 34 32 31 31 33 32 32 31 31 32 34 35 36 37
Wind_Direction
306 305 304 304 304 307 308 307 310 305 299 297 294 293 293 292 289 288 291 289 282 279 274 272 269 267 264 262 260 261 261 259 259 259 257 254 253 254 254 255 255 254 256
302 307 306 306 308 307 306 307 306 305 301 301 299 292 290 288 291 287 283 284 282 281 278 276 272 269 267 265 263 263 263 262 259 259 258 256 255 255 255 256 256 256 254
306 304 301 306 308 308 303 304 304 304 301 299 298 293 286 285 288 287 284 281 280 277 276 277 278 277 275 271 270 269 267 265 265 263 259 258 256 256 255 254 254 254 254
309 306 303 303 305 307 301 302 303 302 300 300 297 297 295 292 290 286 285 286 281 279 270 267 268 271 277 276 278 280 278 275 272 269 264 260 256 256 254 255 254 254 254
308 304 302 302 303 300 299 301 303 304 303 302 300 298 295 295 294 288 288 284 278 276 270 272 273 273 274 278 282 282 280 285 283 275 271 266 261 256 254 253 253 253 253
310 305 301 300 299 300 300 300 305 307 306 306 304 301 298 297 296 294 292 288 285 283 280 281 277 273 272 275 278 280 281 283 283 288 279 271 266 261 257 253 252 253 251
307 305 304 300 300 302 297 299 301 304 306 307 305 301 300 299 299 299 297 292 286 284 284 283 279 277 273 272 273 274 277 278 279 280 282 281 271 265 261 257 254 252 251
307 307 305 304 302 298 296 296 299 301 301 301 299 298 298 299 297 296 298 292 291 287 286 286 286 287 283 279 279 274 272 274 273 276 277 278 276 268 263 258 256 254 252
308 307 306 305 302 298 295 294 296 298 299 300 298 297 299 299 300 298 294 293 291 288 286 285 286 284 285 282 278 277 276 273 272 274 276 275 273 269 266 262 255 253 254
304 304 303 301 301 299 295 296 298 300 297 293 294 294 294 295 296 293 291 291 294 292 292 291 290 288 285 281 277 276 273 273 275 274 274 273 272 268 266 263 257 252 251
303 305 302 300 300 302 301 301 298 295 294 294 294 295 295 294 292 292 293 294 295 295 296 293 290 289 284 278 272 272 273 275 275 275 271 266 265 265 263 259 256 252 251
303 301 300 295 295 296 295 296 297 298 297 296 293 293 294 293 296 302 302 300 301 297 292 290 289 287 282 279 275 275 276 275 274 272 268 265 264 261 257 254 254 252 250
301 299 297 293 295 293 294 295 294 296 298 297 292 293 297 302 303 304 304 301 299 295 293 290 287 283 280 279 279 278 278 278 275 271 266 262 259 255 254 252 251 251 250
303 299 300 299 297 293 290 293 295 297 298 297 297 302 303 303 303 304 303 300 297 294 292 290 286 285 284 283 281 280 278 276 274 269 264 260 256 251 250 250 250 249 249
301 304 302 299 295 291 294 295 293 295 298 299 303 302 300 302 304 302 298 297 296 295 292 290 289 288 286 284 282 279 278 278 278 273 262 253 254 251 250 247 248 247 247
301 298 294 294 293 293 294 293 292 293 294 296 298 299 303 303 301 300 296 296 295 293 293 292 291 289 286 284 282 278 279 278 277 268 256 247 250 249 250 247 247 246 245
302 299 297 295 292 291 289 289 283 288 292 294 297 303 303 303 301 299 296 294 292 293 290 291 292 287 287 286 285 281 275 274 274 261 253 250 249 248 247 248 248 247 246
298 299 299 298 293 286 281 278 289 294 295 297 304 303 302 304 299 295 297 294 293 291 286 293 289 285 289 287 283 278 277 276 269 263 258 254 249 250 248 248 250 250 250
300 300 300 295 289 284 281 279 288 297 303 307 306 306 304 296 294 295 295 293 294 287 289 291 287 288 287 285 283 276 278 273 268 261 260 256 253 247 249 250 254 253 254
293 294 297 293 286 285 284 282 293 299 303 305 304 301 295 295 295 293 290 292 292 286 289 287 289 288 284 284 282 281 278 270 267 263 258 256 255 252 250 252 255 258 258
283 290 295 288 283 282 286 293 299 301 302 300 298 296 296 295 294 292 290 290 290 284 287 288 288 286 282 282 279 277 273 271 266 264 260 256 255 255 253 254 255 256 256
280 287 289 289 287 288 290 296 298 298 296 296 296 297 297 296 295 292 288 288 288 282 283 287 287 287 282 278 280 276 271 267 264 263 262 259 257 255 255 255 256 257 258
286 289 290 291 295 298 299 296 294 294 294 294 295 296 295 294 292 289 287 285 285 280 278 282 285 286 282 278 278 276 272 268 263 260 258 257 257 256 256 257 257 258 259
291 294 298 299 297 295 294 293 293 293 293 292 292 292 292 291 290 288 285 284 282 279 275 278 280 281 279 277 275 274 270 267 264 261 260 259 259 259 260 261 262 262 263
298 298 296 295 295 295 295 293 293 293 293 292 291 291 290 290 288 286 284 282 279 276 273 273 276 278 277 275 271 268 266 264 262 258 256 256 258 260 261 263 265 267 267
295 295 297 297 296 295 295 294 294 293 293 291 290 289 288 286 285 283 281 279 277 274 271 270 272 275 274 272 269 264 260 259 257 258 259 260 261 263 265 267 268 270 272